Weather in Melovoye

Russia / Saratov Oblast     50°47′20″N   45°37′44″E
temp.,
°C
wind,
m/s
gust,
m/s
humid.,
%
clouds,
%
prec.,
mm/h
press.,
hPa
HPBL,
m
19 april, mon
mon1901:00+10wnw336986 0.0 101743
04:00+10nnw227986 0.0 101639
07:00+9n3573100 0.0 1016125
10:00+10ne4575100 0.0 1016411
13:00+12ne447397 0.0 1016716
16:00+11ne6680100 0.3 1016482
19:00+9ne6889100 1.4 1016305
22:00+8ne5892100 1.4 1016269
20 april, tue
tue2001:00+9ene3797100 1.6 1016235
04:00+7e61092100 2.0 1017347
07:00+6e71190100 1.6 1018420
10:00+5e71291100 5.3 1019535
13:00+6ese81385100 1.8 1019620
16:00+8e101478100 1.8 1018677
19:00+7e101885100 2.2 1016588
22:00+8ese112089100 6.4 1016716
21 april, wed
wed2101:00+7se91893100 7.8 1016669
04:00+7se101890100 11.4 1015714
07:00+7sse101890100 3.5 1015724
10:00+6se101694100 3.8 1015582
13:00+7sse71395100 0.6 1017530
16:00+8sse61196100 0.7 1018387
19:00+8se51095100 0.0 1019322
22:00+7se4797100 0.0 1020236
22 april, thu
thu2201:00+7se3698100 0.1 1020191
04:00+7se3499100 0.1 1021152
07:00+7sse2398100 0.0 1021102
10:00+11sw247124 0.0 1022504
13:00+14sw235455 0.1 10221377
16:00+14sse2255100 0.1 1023580
19:00+12ssw2269100 0.0 102435
22:00+12wsw1166100 0.0 102410
23 april, fri
fri2301:00+10se3483100 0.0 102582
04:00+9se2288100 0.0 102553
07:00+9ese2387100 0.0 1025119
10:00+10e337742 0.0 1025270
13:00+13e34665 0.0 1024565
16:00+14ene345568 0.1 10231116
19:00+13e356392 0.0 1022178
22:00+11se247426 0.3 1021108